Wind_Speed
6 6 7 7 7 8 8 8 9 9 9 9 9 10 9 8 8 9 9 9 9 9 10 10 9 9 9 10 10 11 11 11 13 13 13 13 14 14 14 14 15 15 16
7 7 7 7 7 7 8 9 9 9 10 10 10 9 9 8 9 9 9 9 9 9 9 9 9 9 10 10 10 10 11 11 12 13 13 14 14 14 14 15 15 15 16
8 8 8 8 8 8 8 9 9 9 10 10 9 9 10 10 10 10 10 10 10 10 10 9 9 10 11 11 11 11 11 11 12 13 13 13 14 15 15 15 15 16 16
8 8 8 8 8 9 9 9 9 9 9 9 10 10 11 11 10 11 11 11 11 11 11 11 12 12 11 12 12 12 12 12 12 13 13 13 14 15 15 16 16 16 17
8 9 9 9 9 9 9 9 9 9 10 10 10 11 11 12 11 12 12 12 12 12 12 12 12 12 12 12 12 12 13 13 13 14 14 14 15 15 15 16 17 17 17
9 9 9 9 9 9 10 10 10 10 11 11 11 12 12 12 12 12 12 12 12 12 12 12 12 12 12 12 12 13 13 13 14 15 14 15 15 16 16 16 16 17 17
9 9 9 9 9 10 10 10 11 11 11 11 12 12 12 11 12 12 12 12 12 13 13 12 12 13 13 13 13 14 14 14 15 15 15 16 17 16 17 17 18 17 18
10 10 10 10 10 10 10 11 11 11 11 11 12 12 12 12 12 12 12 12 13 13 13 13 13 13 13 13 14 14 14 15 15 15 16 16 16 17 16 17 18 18 18
11 11 11 11 11 12 12 11 11 11 11 11 11 12 12 12 13 13 13 13 13 14 13 13 13 13 13 14 14 14 15 15 15 15 15 15 15 16 16 17 17 17 18
12 12 12 12 12 13 13 13 13 13 13 12 13 13 13 13 13 13 14 13 14 14 14 13 13 14 14 15 15 15 15 15 14 14 15 15 16 17 17 17 17 17 17
13 13 13 13 13 13 13 13 13 13 13 13 13 13 14 14 14 15 14 14 14 14 14 14 15 15 15 15 15 15 15 15 15 15 16 16 17 17 17 17 17 17 17
14 13 13 13 14 14 14 13 13 14 14 14 14 14 14 14 14 15 14 14 14 14 14 15 15 15 15 15 15 15 15 15 16 16 16 16 16 17 17 17 18 18 17
15 15 14 14 15 15 14 14 14 14 14 14 14 14 15 15 15 15 15 15 15 15 15 15 15 15 15 15 15 16 16 16 16 16 16 17 17 17 18 18 18 18 17
16 16 16 15 15 16 16 16 15 15 15 15 15 14 15 15 15 15 15 15 15 15 15 15 15 15 15 15 16 17 17 17 17 17 17 17 17 17 18 18 18 18 18
17 17 17 17 17 17 17 16 16 16 16 15 15 16 16 16 16 16 16 16 15 15 15 16 16 16 16 17 17 17 18 18 18 17 18 17 17 17 17 18 18 18 18
18 18 19 19 18 19 18 17 17 16 16 17 17 17 17 16 16 16 16 16 16 16 16 16 17 17 17 18 18 18 19 19 19 18 18 18 18 18 18 18 18 18 18
20 20 20 20 20 19 19 18 18 18 18 18 18 18 17 17 17 17 17 17 17 17 17 17 18 18 19 19 19 19 19 19 19 18 18 18 18 18 18 18 18 19 19
22 21 21 20 20 20 20 19 19 19 19 19 19 19 19 18 19 19 20 20 19 19 19 19 19 20 20 20 20 20 20 20 19 19 19 19 19 19 19 19 19 19 19
24 22 22 21 21 21 21 20 20 20 21 20 20 20 20 20 20 21 21 21 21 21 21 21 21 21 21 21 21 21 21 20 20 20 19 20 20 20 20 20 20 20 20
25 24 23 22 22 22 21 21 21 21 21 21 22 21 21 22 22 22 23 23 23 22 22 22 22 22 22 21 22 22 21 21 20 20 20 21 20 20 20 21 21 21 20
26 26 24 23 23 23 22 22 22 22 22 22 22 22 22 23 23 23 23 23 23 23 23 23 22 22 22 22 23 23 22 22 21 21 21 21 21 21 21 22 22 22 21
26 26 26 25 24 24 24 24 24 24 24 24 23 22 23 23 23 23 24 23 24 24 23 23 23 23 23 23 24 24 23 23 22 22 22 21 22 22 22 22 23 23 23
28 28 28 27 26 26 26 26 26 25 25 24 24 24 24 24 23 24 24 24 24 24 24 24 24 24 24 24 24 24 24 24 24 23 23 23 22 22 23 23 24 24 24
28 28 29 29 28 28 27 27 27 27 26 26 26 26 25 25 24 24 24 24 25 25 25 25 25 25 25 25 25 25 25 25 25 24 24 24 24 24 24 24 24 24 24
30 30 29 29 29 28 28 28 29 28 27 28 27 27 26 26 26 26 26 26 25 25 26 26 25 25 25 26 26 26 25 25 25 25 25 25 25 25 25 25 25 25 25
31 31 31 31 30 29 29 29 29 28 27 27 27 27 27 27 27 27 27 27 27 27 27 27 27 26 26 26 26 26 25 25 25 26 26 26 25 26 26 26 27 26 26
Wind_Direction
280 278 279 280 282 284 284 281 281 282 285 286 289 291 292 290 289 289 289 289 288 285 283 288 288 281 275 276 275 271 266 267 268 270 268 268 266 263 264 266 264 263 263
282 283 281 280 283 283 282 283 284 283 284 287 287 286 286 286 288 291 288 287 285 282 281 287 286 283 278 280 281 275 272 270 271 272 269 267 264 264 265 265 266 265 265
278 278 278 279 282 283 285 285 285 282 283 285 285 284 284 284 287 288 285 285 284 281 283 281 281 282 278 278 282 282 279 278 274 273 270 269 268 265 264 264 265 268 268
281 279 280 285 286 286 285 282 282 282 283 286 287 286 286 283 284 285 284 283 283 281 282 287 287 287 277 276 280 280 279 280 279 274 271 270 269 265 261 263 266 267 269
285 283 284 287 287 288 284 281 283 286 288 289 287 287 287 283 283 284 284 283 282 283 285 289 290 286 283 282 281 279 281 281 281 277 274 272 271 268 267 268 268 268 270
284 283 282 284 283 282 281 283 285 288 289 288 287 287 285 281 279 281 281 281 282 285 287 288 287 285 285 285 285 284 283 281 279 274 275 273 273 271 272 271 271 271 271
280 283 285 281 282 279 281 282 286 288 287 286 285 286 286 284 282 281 280 278 280 284 286 286 286 285 285 284 282 283 284 282 281 279 277 275 273 272 273 273 273 273 272
275 282 284 285 288 286 285 286 289 289 288 287 286 287 288 286 283 283 283 282 282 285 285 284 285 287 286 283 282 282 282 282 283 281 280 278 274 272 275 277 276 273 271
277 281 284 287 290 291 293 294 292 291 290 288 285 283 283 282 283 284 284 284 284 285 285 283 283 286 286 284 283 283 282 282 281 281 282 281 280 278 280 281 279 274 269
275 280 284 287 289 292 295 297 294 292 290 290 289 286 284 283 283 285 284 285 287 286 283 283 284 284 284 283 284 285 285 284 283 282 281 280 280 279 279 279 280 278 277
272 277 283 287 288 291 293 294 294 293 291 291 290 289 288 288 286 286 286 286 287 286 283 283 284 285 286 285 284 286 285 285 285 285 283 282 280 279 278 278 279 279 280
270 275 281 285 287 289 291 292 292 291 290 291 289 288 290 289 289 287 286 286 287 289 288 287 285 287 287 289 288 287 286 286 285 286 286 285 283 281 279 278 277 278 280
269 273 277 282 285 287 288 289 290 289 289 289 289 289 290 289 287 288 288 288 289 291 292 292 291 291 291 292 292 290 288 287 286 285 286 286 285 283 280 278 277 277 279
266 269 274 278 282 285 286 286 286 287 287 288 289 288 288 288 287 288 290 291 291 291 291 292 293 293 291 291 292 290 287 286 286 285 285 286 287 285 282 280 278 277 278
264 268 273 277 281 284 285 284 284 285 286 287 288 289 289 288 287 287 287 288 289 290 291 292 293 292 292 292 292 291 288 286 285 285 285 287 287 286 284 282 281 279 278
267 270 272 274 279 282 282 282 283 283 285 286 287 288 288 287 286 285 285 286 288 289 290 292 293 293 293 293 293 291 289 287 286 285 285 287 287 285 283 283 284 282 279
266 268 272 273 276 278 279 279 282 283 284 285 286 286 286 285 284 284 283 284 285 287 289 291 291 293 293 293 292 291 291 290 286 284 283 285 285 284 283 283 284 283 281
264 267 270 270 273 274 276 278 280 283 283 283 283 284 283 283 282 281 281 282 283 284 287 289 290 290 291 292 291 291 290 289 286 283 281 282 282 283 283 282 283 283 283
262 265 266 270 274 273 273 276 279 282 282 281 281 282 281 281 281 281 281 281 281 283 285 288 288 288 289 290 290 290 288 287 285 283 281 281 281 280 281 283 284 283 282
261 263 266 270 270 271 272 273 276 279 280 281 281 280 279 280 280 280 280 281 282 283 284 286 287 288 288 288 289 289 288 286 285 282 281 281 281 280 281 282 283 283 282
261 263 265 268 269 268 270 272 274 277 280 280 279 279 278 279 279 280 281 281 282 283 283 284 285 286 288 288 287 288 287 285 283 282 281 280 279 279 280 281 280 281 282
262 263 265 267 267 267 269 272 274 275 277 277 277 278 278 278 278 279 280 281 282 282 283 283 283 284 285 287 287 285 285 282 280 280 280 279 279 279 279 280 280 280 281
262 263 266 267 267 266 269 272 275 274 274 274 275 276 277 276 277 278 279 280 280 281 282 283 283 284 284 285 285 284 283 281 280 278 279 281 281 281 281 280 280 279 279
261 263 265 267 267 267 269 270 272 273 273 273 274 274 274 274 275 278 278 279 281 281 282 283 283 283 283 283 284 283 282 280 279 277 277 278 279 280 281 281 280 280 279
262 263 265 266 267 268 268 269 272 273 272 272 273 274 274 274 275 277 278 278 280 282 283 283 284 284 285 286 285 284 282 279 278 277 278 279 278 278 280 280 281 281 280
263 263 263 265 266 266 267 268 268 269 271 272 272 272 275 275 275 277 279 279 279 281 282 282 283 283 285 286 285 284 282 280 279 278 278 279 279 279 279 279 280 281 282
Height
5863 5862 5862 5862 5861 5861 5860 5860 5859 5858 5858 5857 5857 5856 5855 5855 5854 5853 5853 5852 5851 5850 5849 5847 5846 5845 5845 5845 5845 5844 5844 5844 5843 5843 5843 5842 5842 5842 5842 5841 5841 5841 5841
5861 5861 5860 5860 5859 5859 5858 5858 5857 5856 5856 5855 5854 5854 5853 5852 5852 5851 5850 5849 5849 5848 5847 5846 5845 5844 5843 5843 5842 5841 5841 5841 5840 5840 5839 5839 5839 5838 5838 5838 5837 5837 5837
5859 5858 5858 5858 5857 5857 5856 5855 5854 5854 5853 5852 5852 5851 5851 5850 5849 5848 5847 5847 5846 5845 5845 5844 5842 5842 5840 5840 5839 5838 5838 5837 5837 5836 5836 5835 5835 5835 5834 5834 5834 5834 5833
5856 5856 5856 5855 5855 5854 5853 5853 5852 5851 5851 5850 5849 5849 5848 5847 5846 5845 5845 5844 5843 5842 5842 5841 5840 5839 5838 5837 5836 5835 5835 5834 5834 5833 5832 5832 5831 5831 5830 5831 5830 5830 5829
5854 5854 5853 5853 5852 5852 5851 5850 5849 5849 5848 5847 5847 5846 5845 5844 5844 5843 5842 5841 5840 5839 5839 5838 5837 5836 5835 5834 5833 5832 5832 5831 5830 5830 5829 5828 5828 5827 5827 5827 5826 5826 5825
5852 5852 5851 5851 5850 5850 5849 5848 5847 5846 5846 5845 5844 5843 5842 5842 5841 5840 5839 5838 5837 5836 5835 5834 5833 5833 5831 5830 5829 5829 5828 5828 5827 5826 5825 5824 5824 5823 5823 5823 5822 5821 5821
5850 5850 5849 5848 5848 5847 5846 5845 5844 5844 5843 5842 5841 5840 5839 5839 5838 5837 5836 5835 5834 5833 5832 5831 5830 5829 5828 5827 5826 5825 5824 5824 5823 5822 5821 5820 5820 5819 5818 5818 5818 5817 5816
5847 5847 5846 5845 5845 5844 5843 5843 5842 5841 5840 5839 5838 5837 5836 5836 5834 5834 5833 5832 5830 5829 5828 5827 5826 5825 5824 5823 5822 5821 5820 5820 5819 5818 5817 5816 5815 5814 5814 5813 5812 5812 5811
5844 5844 5843 5843 5842 5841 5840 5840 5839 5838 5837 5836 5835 5834 5833 5832 5831 5830 5829 5828 5826 5825 5824 5823 5822 5821 5820 5819 5817 5817 5816 5815 5814 5813 5812 5812 5811 5810 5809 5808 5807 5807 5806
5841 5841 5840 5840 5839 5838 5837 5836 5835 5834 5834 5832 5832 5831 5830 5828 5828 5827 5826 5824 5822 5821 5820 5819 5818 5816 5815 5814 5813 5812 5811 5810 5810 5809 5808 5807 5806 5805 5804 5803 5802 5802 5801
5838 5838 5837 5836 5836 5835 5834 5833 5832 5831 5830 5829 5828 5827 5826 5825 5824 5823 5821 5820 5819 5817 5816 5815 5813 5812 5811 5810 5808 5807 5806 5806 5805 5804 5803 5802 5801 5800 5799 5798 5797 5797 5796
5834 5834 5833 5833 5832 5831 5830 5829 5828 5827 5826 5825 5824 5823 5822 5820 5819 5818 5817 5816 5815 5813 5811 5810 5809 5808 5806 5805 5804 5803 5802 5801 5800 5799 5798 5797 5796 5795 5794 5793 5793 5792 5791
5830 5830 5830 5829 5828 5827 5826 5825 5824 5823 5822 5821 5820 5819 5817 5816 5815 5814 5813 5811 5810 5808 5807 5805 5804 5803 5801 5800 5799 5798 5796 5796 5795 5794 5793 5792 5791 5790 5789 5788 5788 5787 5786
5826 5826 5825 5825 5824 5823 5822 5821 5820 5819 5818 5816 5815 5814 5813 5812 5810 5809 5808 5807 5805 5804 5802 5801 5799 5798 5797 5795 5794 5793 5791 5790 5790 5789 5788 5787 5786 5785 5784 5783 5782 5782 5781
5820 5820 5820 5820 5819 5818 5817 5816 5815 5814 5813 5812 5811 5810 5808 5807 5806 5804 5803 5802 5801 5800 5798 5797 5795 5794 5792 5791 5790 5788 5787 5785 5784 5783 5783 5782 5781 5780 5779 5778 5777 5777 5776
5815 5815 5815 5815 5814 5813 5812 5811 5810 5809 5808 5807 5806 5805 5804 5802 5801 5800 5798 5797 5796 5795 5794 5792 5791 5789 5787 5786 5784 5783 5782 5780 5779 5778 5777 5777 5776 5775 5774 5773 5772 5772 5771
5809 5809 5809 5809 5808 5808 5807 5806 5805 5804 5803 5802 5801 5800 5799 5797 5796 5795 5794 5792 5791 5790 5789 5788 5786 5784 5782 5781 5779 5778 5776 5775 5774 5773 5772 5771 5771 5770 5769 5768 5767 5766 5765
5802 5802 5802 5802 5802 5802 5801 5801 5800 5799 5798 5796 5795 5794 5793 5792 5791 5790 5789 5787 5786 5785 5783 5782 5781 5779 5777 5775 5773 5772 5770 5769 5768 5767 5767 5766 5765 5765 5764 5763 5762 5761 5760
5795 5796 5796 5796 5796 5795 5795 5795 5794 5793 5792 5791 5790 5789 5788 5787 5785 5784 5783 5781 5780 5779 5777 5776 5774 5773 5771 5769 5768 5766 5764 5763 5762 5762 5761 5760 5760 5759 5758 5757 5756 5756 5755
5789 5789 5789 5789 5789 5788 5788 5788 5788 5787 5786 5785 5784 5782 5781 5780 5779 5778 5776 5775 5773 5772 5771 5769 5768 5766 5764 5763 5761 5760 5758 5757 5756 5756 5755 5754 5754 5753 5752 5751 5750 5750 5749
5781 5781 5782 5782 5781 5781 5781 5781 5781 5780 5779 5778 5777 5776 5775 5774 5772 5771 5770 5768 5767 5765 5764 5763 5761 5759 5758 5756 5755 5753 5752 5751 5750 5749 5749 5748 5748 5747 5746 5745 5744 5743 5742
5773 5773 5774 5774 5774 5774 5774 5774 5773 5773 5772 5771 5770 5769 5768 5767 5766 5764 5763 5761 5760 5758 5757 5756 5754 5753 5751 5749 5748 5746 5745 5745 5744 5744 5743 5742 5742 5741 5740 5739 5737 5736 5735
5764 5765 5765 5765 5765 5766 5766 5766 5765 5765 5764 5763 5763 5762 5761 5760 5759 5758 5756 5755 5753 5752 5750 5749 5747 5746 5744 5743 5741 5740 5739 5738 5737 5736 5736 5735 5735 5734 5733 5732 5730 5729 5728
5755 5756 5756 5757 5757 5757 5757 5757 5757 5757 5756 5755 5755 5754 5754 5753 5752 5751 5750 5748 5747 5745 5744 5742 5741 5739 5737 5736 5734 5733 5732 5731 5730 5729 5729 5728 5728 5727 5726 5724 5723 5722 5721
5746 5747 5748 5748 5749 5749 5749 5749 5749 5748 5748 5747 5747 5746 5746 5745 5744 5743 5742 5742 5740 5739 5737 5735 5733 5731 5730 5729 5727 5726 5724 5724 5723 5722 5721 5721 5720 5719 5718 5717 5716 5715 5713
5737 5738 5739 5739 5739 5740 5740 5740 5740 5740 5740 5739 5739 5738 5738 5737 5736 5735 5735 5734 5733 5731 5730 5728 5726 5725 5723 5721 5720 5719 5717 5716 5715 5715 5714 5713 5712 5711 5711 5710 5708 5707 5705